Location: Peterborough
(44.3091°N, 78.3197°W)
Time: 06:00:40
(UTC-04:00)

Vanguard 3 - Pass Details

Date: 27 February 2024
Orbit: 510 x 3236 km, 33.3° (Epoch: 12 April)

Event Time Altitude Azimuth Distance (km) Brightness Sun altitude
Rises 20:04:47 0° 233° (SW) 6,556 12.4 -23.3°
Reaches altitude 10° 20:09:00 10° 228° (SW) 5,781 11.9 -24.1°
Maximum altitude 20:26:46 50° 161° (SSE) 3,798 10.2 -27.1°
Enters shadow 20:33:43 38° 118° (ESE) 4,112 10.1 -28.3°
Drops below altitude 10° 20:43:37 10° 93° (E) 5,531 - -30.0°
Sets 20:47:31 0° 89° (E) 6,269 - -30.7°
